Погода в Витиме

Погода в Витиме : погода сейчас, прогноз погоды и архив. Всё, что Вы хотите узнать о погоде в Витиме!

Хотите узнать прогноз погоды в Витиме? Тогда Вам сюда: Погода в Витиме

Поиск расширенной информации на нашем сайте:

Другие новости

Новости СМИ2

Главная страница сайта

Новости сайта

03.07.2017

Напоминаем, что на нашем специализированном сайте Метеоцентр.Азия вы можете получить высокодетализированные автоматические прогнозы погоды по пунктам России, СНГ и мира в авиационном формате (включающие направление и скорость ветра, видимость, явления погоды, количество и форму облачности, нижнюю и верхнюю границу облачности).


Погода в Витиме - сегодня

Время (UTC), дата Ветер
(°,м/с) 
Видим.   Явления Облачность Т
(°С)
Тd
(°С)
f(%) Тe
(°С)
Pmin
(гПа)
dP
(гПа)
Po
(мм)
O2
(г/м3)
Тmin Tmax R s Состояние
почвы
15 18.09.17 тихо ()   20000 м    ясно 
+0.5 -1.2 88 +1  1018.4  0.4  746  300           
18 18.09.17 тихо ()   20000 м    ясно 
-2.6 -2.9 98 -3  1017.7  -1  745  304           
21 18.09.17 тихо ()   20000 м    ясно 
-1.6 -1.8 99 -2  1016.4  -1.2  744  302           
00 19.09.17 020 (С) 4000 м    5/5 600 м 
[St]
+0.1 -0.7 94 -2  1014.7  -1.4  743  299  -3.1        замёрзшая 
03 19.09.17 020 (С) 20000 м    10/3 600 м средняя, верхняя 
[St|Ac lent|Cs]
+2.5 +0.1 84 +2  1013.8  -0.8  743  296           
06 19.09.17 030 (СВ) 20000 м    10/3 600 м кучево-дожд., средняя, верхняя 
[Cb cap|Ac lent|Cs]
+5.6 +0.5 70 +5  1012.7  -0.8  742  293           
09 19.09.17 тихо ()   20000 м    10/6 600 м кучево-дожд., средняя 
[Cb cap|Ac As]
+6.8 +0.5 64 +7  1012.1  -0.5  742  291           
12 19.09.17 тихо ()   20000 м    10/4 600 м кучево-дожд., средняя 
[Cb cap|Ac As]
+5.1 +1.3 76 +5  1012.3  0.1  742  293    +7.3       
15 19.09.17 тихо ()   20000 м    10/6 600 м кучево-дожд., средняя 
[Cb cap|Ac As]
+3.9 +1.9 87 +4  1012.4  742  294           
18 19.09.17 060 (СВ) 20000 м    9/4 600 м кучево-дожд., средняя 
[Cb cap|Ac trans]
+3.6 +1.6 87 +3  1012.5  742  295           
21 19.09.17 060 (СВ) 20000 м    9/3 600 м кучево-дожд., средняя, верхняя 
[Cb cap|Ac trans|Ci fib]
+2.1 -1 80 +1  1012.2  -0.4  742  297           
00 20.09.17 040 (СВ) 20000 м    6/0 средняя, верхняя 
[Ac lent|Ci fib]
+0.7 -1.9 83 -1  1012.2  -0.1  741  298  +0.6        влажная 
03 20.09.17 010 (С) 20000 м    ясно 
+5.6 -0.8 63 +4  1011.7  -0.1  741  293           
06 20.09.17 030 (СВ) 20000 м    3/0 верхняя 
[Ci fib]
+11.1 -3.5 36 +10  1010.2  -1  741  287           
09 20.09.17 010 (С) 20000 м    3/0 верхняя 
[Ci fib]
+10.8 -2.1 40 +10  1010.5  0.2  741  287           
12 20.09.17 360 (С) 20000 м    3/0 верхняя 
[Ci fib]
+3.4 -2.3 66 +2  1011.8  0.7  741  295    +11.9       
15 20.09.17 360 (С) 20000 м    3/0 средняя, верхняя 
[Ac lent|Ci fib]
+3.6 -2.4 65 +2  1012.5  0.7  742  295           
18 20.09.17 340 (С) 20000 м    4/0 средняя, верхняя 
[Ac lent|Ci fib]
+0.5 -3.5 75 -1  1012.5  -0.2  742  299           
21 20.09.17 360 (С) 20000 м    3/0 средняя, верхняя 
[Ac lent|Ci fib]
-2.5 -4.1 89 -2  1012.7  -0.1  742  302           
00 21.09.17 тихо ()   20000 м    3/0 средняя, верхняя 
[Ac lent|Ci fib]
-2.8 -3.8 93 -3  1013  0.3  742  302  -3.7        замёрзшая 
03 21.09.17 040 (СВ) 20000 м    3/0 верхняя 
[Ci fib]
+5.3 -1.2 63 +5  1012.2  -0.1  742  293           
06 21.09.17 020 (С) 20000 м    4/3 1000 м верхняя 
[Cu med, cong|Ci fib]
+9.6 -0.8 48 +10  1010.6  -1.3  741  288           
09 21.09.17 020 (С) 20000 м    8/4 1000 м средняя 
[Cu med, cong|Ac lent]
+10.8 -1.4 43 +12  1009.6  -0.8  740  287           
12 21.09.17 тихо ()   20000 м    3/0 средняя 
[Ac trans]
+3.6 -0.1 77 +4  1010.6  0.4  740  294    +11.2       
15 21.09.17 тихо ()   20000 м    ясно 
-2 -2.9 94 -2  1010.7  -0.4  740  301           
Время (UTC), дата Ветер
(°,м/с) 
Видим.   Явления Облачность Т
(°С)
Тd
(°С)
f(%) Тe
(°С)
Pmin
(гПа)
dP
(гПа)
Po
(мм)
O2
(г/м3)
Тmin Tmax R s Состояние
почвы

Для получения пояснительной информации подведите курсор к названию столбца.

ПОГОДА в Витиме - архив

Всё, что Вы хотите узнать о погоде в Витиме - удобно и подробно!

Выберите нужную дату (начиная с 1 января 2015* года) и нажмите кнопку "Найти".
Будут отображены архивные сводки погоды по пункту Витим, начиная с указанной даты.


Отображать данные в формате CSV (для использования в таблицах Excel)


Внимание! Наш архив погоды предназначен исключительно для личного некоммерческого использования в познавательных целях. Если Вам необходимы официальные справки о состоянии погоды (для производственных, юридических, коммерческих и т.п. целей), обращайтесь в органы Росгидромета.

*Примечание: данная дата относится к архиву по метеостанциям СССР (Россия, СНГ, Балтия).
Архив по метеостанциям Зарубежной Европы и Азии (кроме Китая) хранится 10 дней, по другим регионам земного шара (Китай, Африка, Америка, Австралия, Океания) - 1 день.

Витим - район местоположения метеостанции


Название, широта, долгота, высота метеостанции:
Витим 59.4°ш. 112.6°д. 190 м над ур. моря [Российская Федерация]

Дополнительная информация

В oтличие oт бoльшинства пoгoдных сайтoв мы публикуем пoдрoбную метеoинфoрмацию в детальнoм прoфессиoнальнoм фoрмате.

Характеристики температуры и влажнoсти вoздуха измеряются на высoте 2 м в тени вдали oт зданий и деревьев.
Скoрoсть ветра измеряется на высoте 10 м (на урoвне рoста челoвека скoрoсть ветра ниже в 1.5-2 раза). Если метеoстанция нахoдится в гoрoде или в лесу, тo скoрoсть ветра занижена на 2-4 м/с пo сравнению с oткрытым местoм. Скoрoсть ветра над акватoриями крупных рек и oзёр, а также на вершинах хoлмoв на 2-5 м/с выше, чем в oбычных услoвиях.
Атмoсфернoе давление в разных тoчках местнoсти мoжет значительнo oтличаться oт давления на метеoстанции, в зависимoсти oт услoвий рельефа (при пoдъёме на 10 м давление пoнижается примернo на 1 мм рт.ст.).